EW1476 Weather Reports


time (UTC)temp
F
wind
direction
speed
knots
gust
knots
rain 1hr
in
rain 24hr
in
rain mn
in
humidity
%
barometer
mb
20260504081512 45 212 0.0 0.0 0.00 0.00 0.00 73 1015.5
20260504050024 40 272 0.0 0.0 0.00 0.00 0.00 79 1016.0
20260504044522 41 272 0.0 0.0 0.00 0.00 0.00 77 1015.9
20260504043022 41 272 0.0 0.0 0.00 0.00 0.00 77 1015.9
20260504041520 42 272 0.0 0.0 0.00 0.00 0.00 77 1015.9
20260504040018 41 272 0.0 0.0 0.00 0.00 0.00 79 1015.8
20260504034514 41 272 0.0 0.0 0.00 0.00 0.00 78 1015.7
20260504033029 41 272 0.0 0.0 0.00 0.00 0.00 77 1015.6
20260504031526 41 272 0.0 0.0 0.00 0.00 0.00 76 1015.3
20260504030035 42 272 0.0 0.0 0.00 0.00 0.00 73 1015.2
20260504024522 43 272 0.0 0.0 0.00 0.00 0.00 74 1015.3
20260504023020 44 272 0.0 0.0 0.00 0.00 0.00 71 1015.3
20260504021515 44 272 0.0 0.0 0.00 0.00 0.00 70 1015.3
20260504020029 45 272 0.0 0.0 0.00 0.00 0.00 68 1015.2
20260504014525 46 272 0.0 0.0 0.00 0.00 0.00 68 1015.3
20260504013026 48 272 0.0 0.0 0.00 0.00 0.00 61 1015.3
20260504011523 49 272 0.0 0.0 0.00 0.00 0.00 62 1015.2
20260504010020 50 272 0.0 0.0 0.00 0.00 0.00 51 1015.1
20260504004529 52 272 0.0 0.0 0.00 0.00 0.00 47 1015.0
20260504003028 54 272 0.0 0.0 0.00 0.00 0.00 42 1014.7
20260504001527 55 272 0.0 0.0 0.00 0.00 0.00 39 1014.6
20260504000026 56 271 0.0 0.0 0.00 0.00 0.00 37 1014.5
20260503234526 57 272 0.0 0.0 0.00 0.00 0.00 34 1014.4
20260503233022 58 272 0.0 1.7 0.00 0.00 0.00 33 1014.3
20260503231520 58 260 0.9 1.7 0.00 0.00 0.00 32 1014.1
20260503230014 59 272 0.0 1.7 0.00 0.00 0.00 31 1014.0
20260503224508 59 271 1.7 5.2 0.00 0.00 0.00 32 1014.1
20260503223010 59 306 0.9 3.5 0.00 0.00 0.00 32 1014.2
20260503221525 59 317 0.0 2.6 0.00 0.00 0.00 33 1014.1
20260503220034 59 315 1.7 5.2 0.00 0.00 0.00 31 1014.2
20260503214518 59 330 1.7 3.5 0.00 0.00 0.00 30 1014.2
20260503213016 59 309 1.7 6.1 0.00 0.00 0.00 30 1014.2
20260503211518 59 307 1.7 6.1 0.00 0.00 0.00 31 1014.2
20260503210016 59 245 1.7 3.5 0.00 0.00 0.00 30 1014.3
20260503204539 58 303 2.6 4.3 0.00 0.00 0.00 30 1014.3
20260503203011 58 317 2.6 6.1 0.00 0.00 0.00 31 1014.2
20260503201525 57 301 1.7 6.1 0.00 0.00 0.00 32 1014.5
20260503200018 57 307 0.9 5.2 0.00 0.00 0.00 32 1014.6
20260503194521 57 324 2.6 6.1 0.00 0.00 0.00 32 1014.9
20260503193012 57 281 0.9 3.5 0.00 0.00 0.00 37 1015.1
20260503191508 56 280 1.7 7.8 0.00 0.00 0.00 34 1015.4
20260503190004 55 298 2.6 5.2 0.00 0.00 0.00 36 1015.5
20260503184527 55 243 1.7 4.3 0.00 0.00 0.00 37 1015.7
20260503183021 55 300 1.7 4.3 0.00 0.00 0.00 37 1015.8
20260503181517 54 317 1.7 6.1 0.00 0.00 0.00 37 1015.9
20260503180025 54 221 0.0 5.2 0.00 0.00 0.00 37 1016.0
20260503174519 53 319 2.6 6.1 0.00 0.00 0.00 38 1016.0
20260503173028 52 295 2.6 6.1 0.00 0.00 0.00 39 1016.1
20260503171528 51 316 2.6 5.2 0.00 0.00 0.00 40 1016.3